Lake Charles, LA

6:14 PM CST on November 22, 2017 (GMT -0600)
Chennault International

Weather History for KCWF - May, 2013

Change the Weather History Date:

Saturday, May 4, 2013

  Actual Average Record
Temperature  
Mean Temperature 58 °F -  
Max Temperature 74 °F 82 °F 93 °F (2002)
Min Temperature 44 °F 67 °F 44 °F (2013)
Degree Days  
Heating Degree Days 6    
Growing Degree Days 8 (Base 50)    
Moisture  
Dew Point 43 °F    
Average Humidity 67    
Maximum Humidity 88    
Minimum Humidity 27    
Precipitation  
Precipitation 0.00 in - - ()
Sea Level Pressure  
Sea Level Pressure 30.00 in    
Wind  
Wind Speed 3 mph (SW)    
Max Wind Speed 20 mph    
Max Gust Speed 29 mph    
Visibility 10 miles    
Events      
Averages and records for this station are not official NWS values.
T = Trace of Precipitation, MM = Missing Value Source: NWS Daily Summary

Daily Weather History Graph

Daily Weather History Graph

Search for Another Location

Airport or City:

Trip Planner

Search our weather history database for the weather conditions in past years. The results will help you decide how hot, cold, wet, or windy it might be!

Date:

Astronomy

May. 04, 2013 Rise Set
Actual Time 6:26 AM CDT 7:52 PM CDT
Civil Twilight 6:01 AM CDT 8:18 PM CDT
Nautical Twilight 5:30 AM CDT 8:48 PM CDT
Astronomical Twilight 4:58 AM CDT 9:20 PM CDT
Moon 3:02 AM CDT (5/4) 3:11 PM CDT (5/4)
Length of Visible Light 14h 17m
Length of Day
13h 25m
Waning Crescent, 27% of the Moon is Illuminated
May 4
Waning Crescent
May 9
New
May 17
First Quarter
May 24
Full
May 31
Last Quarter

Hourly Weather History & Observations

Time (CDT) Temp. Dew Point Humidity Pressure Visibility Wind Dir Wind Speed Gust Speed Precip Events Conditions
12:15 AM 50.0 °F 41.4 °F 72% 30.08 in 10.0 mi Calm Calm - N/A   Clear
12:35 AM 48.6 °F 42.1 °F 78% 30.08 in 10.0 mi West 3.5 mph - N/A   Clear
12:55 AM 48.2 °F 42.4 °F 80% 30.07 in 10.0 mi Calm Calm - N/A   Clear
1:15 AM 46.9 °F 42.3 °F 84% 30.06 in 10.0 mi Calm Calm - N/A   Clear
1:35 AM 48.6 °F 41.5 °F 77% 30.05 in 10.0 mi Calm Calm - N/A   Clear
1:55 AM 47.5 °F 42.4 °F 83% 30.04 in 10.0 mi Calm Calm - N/A   Clear
2:15 AM 46.4 °F 42.8 °F 87% 30.04 in 10.0 mi Calm Calm - N/A   Clear
2:35 AM 47.1 °F 41.4 °F 80% 30.03 in 10.0 mi Calm Calm - N/A   Clear
2:55 AM 46.9 °F 41.2 °F 80% 30.02 in 10.0 mi Calm Calm - N/A   Clear
3:15 AM 48.0 °F 41.0 °F 77% 30.03 in 10.0 mi SW 4.6 mph - N/A   Clear
3:35 AM 49.3 °F 40.1 °F 71% 30.03 in 10.0 mi SSW 4.6 mph - N/A   Clear
3:55 AM 45.0 °F 40.3 °F 84% 30.02 in 10.0 mi Calm Calm - N/A   Clear
4:15 AM 45.7 °F 41.0 °F 84% 30.02 in 10.0 mi Calm Calm - N/A   Clear
4:35 AM 44.6 °F 41.0 °F 87% 30.02 in 10.0 mi Calm Calm - N/A   Clear
4:55 AM 44.6 °F 41.2 °F 88% 30.02 in 10.0 mi Calm Calm - N/A   Clear
5:15 AM 44.4 °F 41.0 °F 88% 30.02 in 10.0 mi Calm Calm - N/A   Clear
5:35 AM 45.1 °F 40.6 °F 84% 30.02 in 10.0 mi Calm Calm - N/A   Clear
5:55 AM 46.9 °F 39.7 °F 76% 30.02 in 10.0 mi Calm Calm - N/A   Clear
6:00 AM 46.4 °F 41.0 °F 81% 30.02 in 10.0 mi Calm Calm - N/A   Clear
6:15 AM 45.5 °F 40.1 °F 81% 30.03 in 10.0 mi Calm Calm - N/A   Clear
6:35 AM 45.7 °F 39.9 °F 80% 30.02 in 10.0 mi Calm Calm - N/A   Clear
6:50 AM 44.6 °F 39.2 °F 81% 30.03 in 10.0 mi Calm Calm - N/A   Clear
6:55 AM 45.1 °F 40.5 °F 84% 30.03 in 10.0 mi Calm Calm - N/A   Clear
7:50 AM 53.6 °F 44.6 °F 72% 30.03 in 10.0 mi Calm Calm - N/A   Clear
8:57 AM 60.8 °F 37.4 °F 42% 30.03 in 10.0 mi WSW 6.9 mph - N/A   Clear
9:55 AM 64.4 °F 30.2 °F 28% 30.04 in 10.0 mi WSW 6.9 mph - N/A   Clear
10:58 AM 68.0 °F 33.8 °F 28% 30.03 in 10.0 mi SW 9.2 mph - N/A   Clear
11:53 AM 69.8 °F 35.6 °F 28% 30.02 in 10.0 mi SW 12.7 mph 19.6 mph N/A   Clear
1:45 PM 71.6 °F 35.6 °F 27% 29.96 in 10.0 mi SW 19.6 mph 28.8 mph N/A   Clear
2:45 PM 73.4 °F 39.2 °F 29% 29.93 in 10.0 mi SSW 19.6 mph 28.8 mph N/A   Clear
3:45 PM 73.4 °F 42.8 °F 33% 29.90 in 10.0 mi SW 17.3 mph 26.5 mph N/A   Clear
4:45 PM 73.4 °F 44.6 °F 36% 29.88 in 10.0 mi SSW 12.7 mph 24.2 mph N/A   Clear
5:45 PM 73.4 °F 46.4 °F 38% 29.88 in 10.0 mi SSW 19.6 mph 24.2 mph N/A   Clear
6:45 PM 71.6 °F 50.0 °F 46% 29.88 in 10.0 mi SSW 17.3 mph 24.2 mph N/A   Clear
7:45 PM 68.0 °F 51.8 °F 56% 29.88 in 10.0 mi SSW 13.8 mph 23.0 mph N/A   Clear
8:45 PM 66.2 °F 53.6 °F 64% 29.90 in 10.0 mi SW 10.4 mph 17.3 mph N/A   Clear
9:45 PM 66.2 °F 53.6 °F 64% 29.92 in 10.0 mi WSW 8.1 mph - N/A   Clear
11:15 PM 65.3 °F 55.6 °F 71% 29.93 in 10.0 mi WSW 6.9 mph - N/A   Clear
11:35 PM 64.8 °F 55.8 °F 73% 29.93 in 10.0 mi WSW 6.9 mph - N/A   Clear
11:55 PM 64.6 °F 55.9 °F 74% 29.94 in 10.0 mi West 5.8 mph - N/A   Clear